Home > Time Zones > World Clock > Weather > Palau > Koror > Past weeks

Flag for Palau Weather past 2 weeks in Koror, Palau

Now
82 °F

Mostly cloudy.


Feels Like: 89 °F
Forecast: 78 / 83 °F
Wind: 20 mph from West

Location: Koror / Palau Island

Current Time: Aug 3, 2015 at 2:21:30 PM

Latest Report: Aug 3, 2015 at 12:55 PM


Visibility: 14 mi

Pressure: 29.75 "Hg

Humidity: 79%

Dew point: 75 °F

Location of KororLocation

Historic Weather in Koror — Graph

°F

Koror temperature yesterday

Maximum temperature yesterday: 82 °F (at 7:50 PM)
Minimum temperature yesterday: 77 °F (at 7:51 AM)
Average temperature yesterday: 80 °F

Past Weeks' High & Low Weather Summary

 TemperatureHumidityPressure
High88 °F (Jul 20, 3:50 PM)100% (Jul 22, 7:53 PM)29.97 "Hg (Jul 22, 7:53 PM)
Low75 °F (Jul 20, 4:55 AM)66% (Jul 20, 3:50 PM)29.71 "Hg (Jul 31, 3:50 PM)
Average80 °F87%29.85 "Hg
* Reported Jul 19 12:55 PM — Aug 3 12:55 PM, Koror, Weather by CustomWeather, © 2015

Note: Actual official high and low records may vary slightly from our data, if they occured in-between our weather recording intervals... More about our weather records

Advertising

Koror weather history for previous 24 hours

 ConditionsComfort  
Time TempWeatherWind HumidityBarometerVisibility
12:55 PM
Mon, Aug 3
82 °FMostly cloudy.20 mph79%29.75 "Hg14 mi
11:53 AM84 °FCloudy.13 mph79%29.78 "Hg14 mi
10:54 AM84 °FCloudy.13 mph74%29.79 "Hg14 mi
9:55 AM84 °FCloudy.20 mph74%29.79 "Hg14 mi
8:54 AM82 °FCloudy.12 mph79%29.78 "Hg14 mi
7:55 AM82 °FCloudy.17 mph79%29.78 "Hg14 mi
5:53 AM81 °FMostly cloudy.15 mph84%29.76 "Hg13 mi
4:54 AM79 °FMostly cloudy.9 mph89%29.75 "Hg13 mi
3:55 AM79 °FMostly cloudy.7 mph89%29.75 "Hg13 mi
2:52 AM79 °FSprinkles. Mostly cloudy.9 mph89%29.78 "Hg9 mi
1:51 AM81 °FThunderstorms. Mostly cloudy.17 mph84%29.76 "Hg14 mi
12:53 AM81 °FThunderstorms. Mostly cloudy.12 mph84%29.78 "Hg14 mi
11:50 PM
Sun, Aug 2
81 °FMostly cloudy.16 mph84%29.79 "Hg12 mi
10:50 PM81 °FMostly cloudy.15 mph84%29.80 "Hg12 mi
9:50 PM81 °FMostly cloudy.18 mph84%29.80 "Hg12 mi
8:50 PM79 °FSprinkles. Mostly cloudy.16 mph94%29.77 "Hg12 mi
7:50 PM82 °FMostly cloudy.14 mph79%29.77 "Hg12 mi
6:50 PM81 °FMostly cloudy.15 mph84%29.77 "Hg12 mi
5:50 PM81 °FSprinkles. Mostly cloudy.13 mph84%29.77 "Hg12 mi
4:50 PM81 °FSprinkles. Mostly cloudy.9 mph89%29.77 "Hg12 mi
3:50 PM79 °FSprinkles. Mostly cloudy.7 mph94%29.78 "Hg12 mi
2:55 PM79 °FSprinkles. Mostly cloudy.12 mph89%29.78 "Hg12 mi
Weather by CustomWeather, © 2015

See weather overviewHow to use our weather pages